"Pseudo-MPEC" for C16JM35

Created 2025 Oct 18 1:35:07 UT using Find_Orb

Click here for an explanation of pseudo-MPECs

 
 Astrometry: 
     C16JM35* C2025 10 16.28775000 19 33.038+06 04 29.42   ~AG85 21.90GVNEOCPV00
     C16JM35  C2025 10 16.29417000 19 34.612+06 04 56.06   ~AG85 21.64GVNEOCPV00
     C16JM35  C2025 10 16.29974900 19 35.936+06 05 19.10   ~AG85 21.79GVNEOCPV00
     C16JM35  C2025 10 16.30532800 19 37.250+06 05 42.65   ~AG85       VNEOCPV00
     C16JM35  C2025 10 17.18690000 23 46.850+07 01 23.40   ~AH5o 21.8 RVNEOCP291
     C16JM35  C2025 10 17.19798000 23 49.030+07 02 02.60   ~AH5o 22.0 RVNEOCP291
     C16JM35  C2025 10 17.20905000 23 51.220+07 02 40.80   ~AH5o 22.4 RVNEOCP291

Station data:
(291) LPL/Spacewatch II  (N31.961669 W111.599905)  US/Arizona.  Observers J.
   V. Scotti, R. S. McMillan. 1.8-m f/2.7 reflector + CCD.
(V00) Kitt Peak-Bok  (N31.963125 W111.600190)  US/Arizona. Measurers T.
   Beuden, V. F. Carvajal, D. Fay, J. B. Fazekas, D. C. Fuls, A. R. Gibbs, A.
   D. Grauer, H. Gröller, J. K. Hogan, R. A. Kowalski, S. M. Larson, G. J.
   Leonard, D. Rankin, R. L. Seaman, F. C. Shelly, K. W. Wierzchoś. 2.25-m
   reflector + 4x4K mosaic CCD.

Orbital elements:  C16JM35
   Perihelion 2025 Aug 12.305220 +/- 0.51 TT =  7:19:31.0 (JD 2460899.805220)
Epoch 2025 Oct 17.0 TT = JDT 2460965.5   Earth MOID: 0.0043   Ma: 0.0531
M  48.845406449 +/- 0.9             (J2000 ecliptic)             AutoNEOCP
n   0.743520361 +/- 0.0104          Peri.  281.606016 +/- 2.0
a   1.206722670 +/- 0.0113          Node    18.491854 +/- 0.10
e   0.31129909 +/- 0.0174           Incl.    2.734575 +/- 0.10
P   1.326/484.174d         H 27.74  G  0.15   U  9.7
q 0.831070998 +/- 0.0167    Q 1.582374342 +/- 0.033
From 7 observations 2025 Oct. 16-17 (22.1 hr); mean residual 0".20
Residuals in arcseconds: 
251016 V00  .24-  .07-    251016 V00  .22-  .33+    251017 291  .09+  .00     
251016 V00  .32+  .09-    251017 291  .07+  .27-    
251016 V00  .14+  .16-    251017 291  .16-  .27+    

Ephemerides (geocentric):
Date (UTC) HH   RA             Dec           delta  r     elong  mag " sig PA
---- --------  ------------   ------------  ------ ------ -----  --- --------
2025 10 18 02  00 27 11.706   +07 49 39.77  .05927 1.0536 164.1 22.6 4.08 102
2025 10 18 03  00 27 20.629   +07 51 39.65  .05951 1.0538 164.1 22.6 4.19 101
2025 10 18 04  00 27 29.490   +07 53 38.59  .05974 1.0540 164.1 22.6 4.31 100
2025 10 18 05  00 27 38.289   +07 55 36.62  .05997 1.0542 164.1 22.6 4.43  99
2025 10 18 06  00 27 47.026   +07 57 33.73  .06020 1.0544 164.1 22.6 4.56  98
2025 10 18 07  00 27 55.702   +07 59 29.94  .06043 1.0546 164.1 22.6 4.68  97
2025 10 18 08  00 28 04.318   +08 01 25.25  .06067 1.0548 164.1 22.6 4.80  96
2025 10 18 09  00 28 12.875   +08 03 19.68  .06090 1.0550 164.1 22.6 4.93  95
2025 10 18 10  00 28 21.373   +08 05 13.24  .06113 1.0553 164.1 22.6 5.06  94
2025 10 18 11  00 28 29.813   +08 07 05.94  .06136 1.0555 164.1 22.6 5.19  94
2025 10 18 12  00 28 38.195   +08 08 57.78  .06159 1.0557 164.1 22.6 5.32  93
2025 10 18 13  00 28 46.520   +08 10 48.78  .06183 1.0559 164.1 22.7 5.45  92
2025 10 18 14  00 28 54.789   +08 12 38.94  .06206 1.0561 164.1 22.7 5.58  91
2025 10 18 15  00 29 03.003   +08 14 28.28  .06229 1.0563 164.1 22.7 5.71  91
2025 10 18 16  00 29 11.161   +08 16 16.80  .06253 1.0565 164.1 22.7 5.84  90
2025 10 18 17  00 29 19.265   +08 18 04.51  .06276 1.0567 164.1 22.7 5.98  89
2025 10 18 18  00 29 27.316   +08 19 51.42  .06299 1.0570 164.1 22.7 6.11  89
2025 10 18 19  00 29 35.313   +08 21 37.54  .06322 1.0572 164.1 22.7 6.24  88
2025 10 18 20  00 29 43.257   +08 23 22.88  .06346 1.0574 164.1 22.7 6.38  88
2025 10 18 21  00 29 51.150   +08 25 07.44  .06369 1.0576 164.1 22.7 6.52  87
2025 10 18 22  00 29 58.991   +08 26 51.24  .06392 1.0578 164.1 22.7 6.65  86
2025 10 18 23  00 30 06.781   +08 28 34.28  .06416 1.0580 164.1 22.7 6.79  86
2025 10 19 00  00 30 14.520   +08 30 16.57  .06439 1.0582 164.1 22.7 6.93  85
2025 10 19 01  00 30 22.210   +08 31 58.11  .06462 1.0584 164.1 22.8 7.06  85
2025 10 19 02  00 30 29.850   +08 33 38.93  .06486 1.0587 164.1 22.8 7.20  85
2025 10 19 03  00 30 37.441   +08 35 19.01  .06509 1.0589 164.1 22.8 7.34  84
2025 10 19 04  00 30 44.985   +08 36 58.38  .06533 1.0591 164.0 22.8 7.48  84
2025 10 19 05  00 30 52.480   +08 38 37.04  .06556 1.0593 164.0 22.8 7.62  83
2025 10 19 06  00 30 59.928   +08 40 14.99  .06579 1.0595 164.0 22.8 7.76  83
2025 10 19 07  00 31 07.330   +08 41 52.24  .06603 1.0597 164.0 22.8 7.90  82
2025 10 19 08  00 31 14.685   +08 43 28.81  .06626 1.0599 164.0 22.8 8.04  82
2025 10 19 09  00 31 21.994   +08 45 04.69  .06650 1.0601 164.0 22.8 8.18  82
2025 10 19 10  00 31 29.258   +08 46 39.89  .06673 1.0604 164.0 22.8 8.32  81
2025 10 19 11  00 31 36.477   +08 48 14.43  .06697 1.0606 164.0 22.8 8.46  81
2025 10 19 12  00 31 43.652   +08 49 48.31  .06720 1.0608 164.0 22.8 8.60  81
2025 10 19 13  00 31 50.782   +08 51 21.53  .06743 1.0610 164.0 22.9 8.74  80
2025 10 19 14  00 31 57.870   +08 52 54.10  .06767 1.0612 164.0 22.9 8.88  80
2025 10 19 15  00 32 04.914   +08 54 26.03  .06790 1.0614 164.0 22.9 9.02  80
2025 10 19 16  00 32 11.915   +08 55 57.32  .06814 1.0616 164.0 22.9 9.16  79
2025 10 19 17  00 32 18.875   +08 57 27.99  .06837 1.0619 164.0 22.9 9.30  79
2025 10 19 18  00 32 25.793   +08 58 58.03  .06861 1.0621 163.9 22.9 9.44  79
2025 10 19 19  00 32 32.669   +09 00 27.45  .06885 1.0623 163.9 22.9 9.58  78
2025 10 19 20  00 32 39.505   +09 01 56.27  .06908 1.0625 163.9 22.9 9.72  78
2025 10 19 21  00 32 46.300   +09 03 24.48  .06932 1.0627 163.9 22.9 9.87  78
2025 10 19 22  00 32 53.055   +09 04 52.09  .06955 1.0629 163.9 22.9 10.0  78
2025 10 19 23  00 32 59.771   +09 06 19.11  .06979 1.0631 163.9 22.9 10.1  77
2025 10 20 00  00 33 06.447   +09 07 45.54  .07002 1.0633 163.9 22.9 10.3  77
2025 10 20 01  00 33 13.084   +09 09 11.39  .07026 1.0636 163.9 22.9 10.4  77